This demonstration page uses our WeatherBlox Daily Observations layout. Learn more.

Left ArrowRight Arrow

Hourly Observations for October 18, 2020

Temp ( °F °C ) Dew Point ( °F °C ) Humidity (%) Winds ( mph kmh ) Pressure ( in mb ) Visibility ( mi km ) Precip ( " mm )
12:15 am 00:15 Cloudy with Light Rain 39 4 33 0.8 80 80 NNE 15 24 30.16 1021 10 16 N/A
12:35 am 00:35 Mostly Cloudy 38 3.5 33 0.7 82 82 NNE 20 31 30.16 1021 10 16 N/A
12:55 am 00:55 Partly Cloudy 38 3.2 33 0.6 83 83 N 15 24 30.18 1022 10 16 N/A
1:15 am 01:15 Partly Cloudy 37 3 33 0.8 86 86 N 14 22 30.20 1023 10 16 N/A
1:35 am 01:35 Mostly Cloudy 38 3.3 34 1.1 86 86 N 22 35 30.18 1022 10 16 N/A
1:55 am 01:55 Cloudy 37 2.8 33 0.6 86 86 NNE 20 31 30.19 1022 10 16 N/A
2:15 am 02:15 Cloudy 37 3 33 0.7 85 85 N 17 28 30.21 1023 10 16 N/A
2:35 am 02:35 Cloudy 37 2.6 32 0.1 84 84 NNE 20 31 30.21 1023 10 16 N/A
2:55 am 02:55 Cloudy 36 2.3 32 undefined 85 85 NNE 18 30 30.22 1023 10 16 N/A
3:15 am 03:15 Cloudy 36 2.1 32 -0.2 85 85 N 18 30 30.25 1024 10 16 N/A
3:35 am 03:35 Cloudy 36 2.1 32 -0.2 85 85 N 17 28 30.25 1024 10 16 N/A
3:55 am 03:55 Cloudy 36 2.1 32 -0.2 85 85 NNE 18 30 30.25 1024 10 16 N/A
4:15 am 04:15 Cloudy 36 2 31 -0.6 83 83 NNE 18 30 30.23 1024 10 16 N/A
4:35 am 04:35 Cloudy 35 1.8 31 -0.7 84 84 NNE 16 26 30.24 1024 10 16 N/A
4:55 am 04:55 Cloudy 35 1.7 31 -0.6 85 85 NNE 17 28 30.26 1025 10 16 N/A
5:15 am 05:15 Cloudy 35 1.7 31 -0.7 84 84 NNE 16 26 30.28 1025 10 16 N/A
5:35 am 05:35 Cloudy 35 1.6 31 -0.8 84 84 NNE 17 28 30.28 1025 10 16 N/A
5:55 am 05:55 Cloudy 35 1.6 30 -1 83 83 NNE 18 30 30.28 1025 10 16 N/A
6:15 am 06:15 Cloudy 35 1.5 31 -0.8 85 85 NNE 14 22 30.28 1025 10 16 N/A
6:35 am 06:35 Cloudy 35 1.5 31 -0.7 85 85 NNE 13 20 30.30 1026 10 16 N/A
6:55 am 06:55 Cloudy 35 1.5 30 -1 84 84 NNE 14 22 30.30 1026 10 16 N/A
7:15 am 07:15 Cloudy 35 1.5 30 -1 84 84 NNE 14 22 30.30 1026 10 16 N/A
7:35 am 07:35 Cloudy 35 1.5 30 -1 84 84 N 14 22 30.31 1026 10 16 N/A
7:55 am 07:55 Cloudy 35 1.5 30 -1.2 82 82 NNE 17 28 30.32 1027 10 16 N/A
8:15 am 08:15 Cloudy 35 1.5 30 -1 84 84 NNE 18 30 30.32 1027 10 16 N/A
8:35 am 08:35 Cloudy 35 1.5 31 -0.6 86 86 N 13 20 30.33 1027 10 16 N/A
8:55 am 08:55 Cloudy 35 1.4 31 -0.5 87 87 N 13 20 30.35 1028 10 16 N/A
9:15 am 09:15 Cloudy 35 1.7 29 -1.5 80 80 N 17 28 30.36 1028 10 16 N/A
9:35 am 09:35 Cloudy 35 1.8 29 -1.7 78 78 NNE 15 24 30.37 1028 10 16 N/A
9:55 am 09:55 Cloudy 35 1.8 28 -2.1 76 76 N 18 30 30.38 1029 10 16 N/A
10:15 am 10:15 Cloudy 36 2 29 -1.9 76 76 NNE 12 19 30.39 1029 10 16 N/A
10:35 am 10:35 Cloudy 36 2.3 28 -2.2 72 72 NNE 14 22 30.39 1029 10 16 N/A
10:55 am 10:55 Cloudy 37 2.5 27 -2.9 68 68 NNE 14 22 30.38 1029 10 16 N/A
11:15 am 11:15 Cloudy 37 2.5 26 -3.1 67 67 NNE 13 20 30.38 1029 10 16 N/A
11:35 am 11:35 Cloudy 37 3 27 -2.8 66 66 NNE 12 19 30.39 1029 10 16 N/A
11:55 am 11:55 Cloudy 38 3.4 28 -2.5 66 66 NNE 10 17 30.37 1029 10 16 N/A
12:15 pm 12:15 Cloudy 38 3.6 28 -2.5 65 65 NNE 12 19 30.37 1028 10 16 N/A
12:35 pm 12:35 Cloudy 39 3.7 28 -2.5 64 64 NNE 12 19 30.36 1028 10 16 N/A
12:55 pm 12:55 Cloudy 38 3.6 28 -2.4 65 65 NNE 8 13 30.35 1028 10 16 N/A
1:15 pm 13:15 Cloudy 38 3.3 28 -2.3 67 67 NNE 8 13 30.35 1028 10 16 N/A
1:35 pm 13:35 Cloudy 40 4.2 27 -2.6 62 62 ENE 7 11 30.33 1027 10 16 N/A
1:55 pm 13:55 Cloudy 41 5.1 27 -2.8 57 57 NE 13 20 30.31 1026 10 16 N/A
2:15 pm 14:15 Cloudy 40 4.6 25 -3.7 55 55 NNE 7 11 30.30 1026 10 16 N/A
2:35 pm 14:35 Cloudy 43 5.9 25 -3.9 50 50 NNE 12 19 30.27 1025 10 16 N/A
2:55 pm 14:55 Partly Cloudy 42 5.3 24 -4.5 50 50 NE 12 19 30.28 1025 10 16 N/A
3:15 pm 15:15 Sunny 41 4.9 24 -4.3 52 52 NNE 7 11 30.26 1025 10 16 N/A
3:35 pm 15:35 Partly Cloudy 41 5.2 23 -5 48 48 NNE 8 13 30.26 1025 10 16 N/A
3:55 pm 15:55 Mostly Cloudy 41 5 23 -5 49 49 NNE 8 13 30.25 1024 10 16 N/A
4:15 pm 16:15 Cloudy 40 4.7 24 -4.6 51 51 NNE 5 7 30.26 1025 10 16 N/A
4:35 pm 16:35 Cloudy 40 4.7 24 -4.4 52 52 NNE 7 11 30.26 1025 10 16 N/A
4:55 pm 16:55 Cloudy 41 4.8 24 -4.4 52 52 NE 7 11 30.27 1025 10 16 N/A
5:15 pm 17:15 Mostly Cloudy 40 4.7 24 -4.4 52 52 ENE 9 15 30.27 1025 10 16 N/A
5:35 pm 17:35 Mostly Cloudy 40 4.5 23 -4.8 51 51 NE 6 9 30.28 1025 10 16 N/A
5:55 pm 17:55 Cloudy 40 4.3 22 -5.5 49 49 ENE 8 13 30.28 1026 10 16 N/A
6:15 pm 18:15 Cloudy 39 4 21 -6.2 48 48 NE 10 17 30.29 1026 10 16 N/A
6:35 pm 18:35 Cloudy 39 4 20 -6.8 46 46 ENE 7 11 30.30 1026 10 16 N/A
6:55 pm 18:55 Cloudy 39 3.7 19 -7.1 46 46 ENE 10 17 30.28 1025 10 16 N/A
7:15 pm 19:15 Cloudy 38 3.6 19 -7.4 45 45 ENE 8 13 30.29 1026 10 16 N/A
7:35 pm 19:35 Cloudy 38 3.5 18 -7.7 44 44 NE 7 11 30.30 1026 10 16 N/A
7:55 pm 19:55 Cloudy 38 3.3 19 -7.5 45 45 ENE 10 17 30.29 1026 10 16 N/A
8:15 pm 20:15 Cloudy with Light Rain 38 3.2 19 -7 48 48 ENE 10 17 30.28 1025 10 16 N/A
8:35 pm 20:35 Cloudy 37 2.6 22 -5.7 55 55 E 10 17 30.27 1025 10 16 N/A
8:55 pm 20:55 Mostly Cloudy 37 2.5 22 -5.5 56 56 E 7 11 30.26 1025 10 16 N/A
9:15 pm 21:15 Mostly Cloudy 35 1.7 25 -3.9 67 67 NE 8 13 30.28 1025 10 16 N/A
9:35 pm 21:35 Cloudy 34 1 26 -3.1 74 74 ENE 10 17 30.28 1025 10 16 N/A
9:55 pm 21:55 Cloudy 34 1 27 -2.7 77 77 NE 10 17 30.32 1027 10 16 N/A
10:15 pm 22:15 Cloudy 33 0.6 27 -2.6 79 79 NE 12 19 30.32 1027 10 16 N/A
10:35 pm 22:35 Partly Cloudy 32 0.1 27 -2.6 82 82 ENE 10 17 30.31 1027 10 16 N/A
10:55 pm 22:55 Clear 32 undefined 28 -2.5 83 83 ENE 9 15 30.32 1027 10 16 N/A
11:15 pm 23:15 Clear 32 undefined 28 -2.2 85 85 ENE 8 13 30.32 1027 10 16 N/A
11:35 pm 23:35 Partly Cloudy 32 undefined 28 -2.2 85 85 NE 10 17 30.33 1027 10 16 N/A
11:55 pm 23:55 Partly Cloudy 32 undefined 28 -2.3 85 85 ENE 8 13 30.33 1027 10 16 N/A

Powered by AerisWeather